• Join FlightAware (Why Join?)
  • Login
  • US Flag 
Gobble Gobble! 
12:17PM EST


 

Airport Tracker/Info


-or-


 

Live Flight TrackerFlight Track Log ✈ THY2468 ✈ 25-Jul-2013 ✈ LTBA / IST - LTAF / ADA

Flight Track Log - Related Links

Times and Time Zones

All times are in EDT time to prevent confusion due to time zone crossing. See the THY2468 flight status page for this flight to view local times or setup timezone preferences in your user account.

Time Position Orientation Groundspeed Altitude Reporting Facility
EDT Latitude Longitude Course Direction KTS MPH feet Rate Location/Type
11:05AM 40.5871 29.5127 126° Southeast  Level Estimated
11:06AM 40.5218 29.6272 127° Southeast  Level Estimated
11:07AM 40.4563 29.7414 127° Southeast  Level Estimated
11:08AM 40.3907 29.8554 127° Southeast  Level Estimated
11:09AM 40.3250 29.9693 127° Southeast  Level Estimated
11:10AM 40.2592 30.0828 127° Southeast  Level Estimated
11:11AM 40.1932 30.1962 127° Southeast  Level Estimated
11:12AM 40.1272 30.3094 127° Southeast  Level Estimated
11:13AM 40.0611 30.4223 127° Southeast  Level Estimated
11:14AM 39.9948 30.5350 127° Southeast  Level Estimated
11:15AM 39.9285 30.6475 128° Southeast  Level Estimated
11:16AM 39.8620 30.7598 128° Southeast  Level Estimated
11:17AM 39.7954 30.8718 128° Southeast  Level Estimated
11:18AM 39.7287 30.9837 128° Southeast  Level Estimated
11:19AM 39.6619 31.0953 128° Southeast  Level Estimated
11:20AM 39.5951 31.2067 128° Southeast  Level Estimated
11:21AM 39.5280 31.3179 128° Southeast  Level Estimated
11:22AM 39.4609 31.4288 128° Southeast  Level Estimated
11:23AM 39.3937 31.5396 128° Southeast  Level Estimated
11:24AM 39.3264 31.6502 128° Southeast  Level Estimated
11:25AM 39.2590 31.7605 128° Southeast  Level Estimated
11:26AM 39.1914 31.8706 128° Southeast  Level Estimated
11:27AM 39.1238 31.9805 128° Southeast  Level Estimated
11:28AM 39.0561 32.0902 128° Southeast  Level Estimated
11:29AM 38.9883 32.1997 129° Southeast  Level Estimated
11:30AM 38.9203 32.3090 129° Southeast  Level Estimated
11:31AM 38.8523 32.4180 129° Southeast  Level Estimated
11:32AM 38.7841 32.5269 129° Southeast  Level Estimated
11:33AM 38.7159 32.6356 129° Southeast  Level Estimated
11:34AM 38.6475 32.7440 129° Southeast  Level Estimated
11:35AM 38.5791 32.8522 129° Southeast  Level Estimated
11:36AM 38.5106 32.9603 129° Southeast  Level Estimated
11:37AM 38.4419 33.0681 129° Southeast  Level Estimated
11:38AM 38.3732 33.1757 129° Southeast  Level Estimated
11:39AM 38.3044 33.2831 129° Southeast  Level Estimated
11:40AM 38.2354 33.3904 129° Southeast  Level Estimated
11:41AM 38.1664 33.4974 129° Southeast  Level Estimated
11:42AM 38.0973 33.6042 129° Southeast  Level Estimated
11:43AM 38.0280 33.7108 129° Southeast  Level Estimated
11:44AM 37.9587 33.8172 130° Southeast  Level Estimated
11:45AM 37.8893 33.9234 130° Southeast  Level Estimated
11:46AM 37.8198 34.0294 130° Southeast  Level Estimated
11:47AM 37.7502 34.1352 130° Southeast  Level Estimated
11:48AM 37.6805 34.2408 130° Southeast  Level Estimated
11:49AM 37.6107 34.3462 130° Southeast  Level Estimated
11:50AM 37.5408 34.4514 130° Southeast  Level Estimated
11:51AM 37.4708 34.5564 130° Southeast  Level Estimated
11:52AM 37.4007 34.6612 130° Southeast  Level Estimated
11:53AM 37.3305 34.7659 130° Southeast  Level Estimated
11:54AM 37.2603 34.8703 130° Southeast  Level Estimated
11:55AM 37.1899 34.9745 130° Southeast  Level Estimated
11:56AM 37.1195 35.0785 130° Southeast  Level Estimated
11:57AM 37.0490 35.1824 130° Southeast  Level Estimated
11:58AM 36.9822 35.2804 130° Southeast  Level Estimated
11:59AM 36.9822 35.2804 202° Southwest  Level Estimated
12:00PM 36.9822 35.2804 202° Southwest  Level Estimated
12:01PM 36.9822 35.2804 202° Southwest  Level Estimated
12:02PM 36.9822 35.2804 202° Southwest  Level Estimated
12:03PM 36.9822 35.2804 202° Southwest  Level Estimated
12:04PM 36.9822 35.2804 202° Southwest  Level Estimated
12:05PM 36.9822 35.2804 202° Southwest  Level Estimated
12:06PM 36.9822 35.2804 202° Southwest  Level Estimated
12:07PM 36.9822 35.2804 202° Southwest  Level Estimated
12:08PM 36.9822 35.2804 202° Southwest  Level Estimated
12:09PM 36.9822 35.2804 202° Southwest  Level Estimated
12:10PM 36.9822 35.2804 202° Southwest  Level Estimated
12:11PM 36.9822 35.2804 202° Southwest  Level Estimated
12:12PM 36.9822 35.2804 202° Southwest  Level Estimated
12:13PM 36.9822 35.2804 202° Southwest  Level Estimated
12:14PM 36.9822 35.2804 202° Southwest  Level Estimated